Time,TemperatureF,DewpointF,PressureIn,WindDirection,WindDirectionDegrees,WindSpeedMPH,WindSpeedGustMPH,Humidity,HourlyPrecipIn,Conditions,Clouds,dailyrainin,SoftwareType,DateUTC
2013-07-30 00:03:00,-999.0,-99.9,30.13,West,277,8.0,9.0,-999,-99.99,,,-99.99,,2013-07-30 04:03:00,
2013-07-30 00:23:00,-999.0,-99.9,30.13,West,277,5.0,6.0,-999,-99.99,,,-99.99,,2013-07-30 04:23:00,
2013-07-30 00:33:00,-999.0,-99.9,30.13,West,281,5.0,6.0,-999,-99.99,,,-99.99,,2013-07-30 04:33:00,
2013-07-30 00:43:00,70.0,-99.9,30.13,West,281,5.0,6.0,-999,-99.99,,,-99.99,,2013-07-30 04:43:00,
2013-07-30 00:53:00,-999.0,-99.9,30.13,WNW,284,9.0,10.0,-999,-99.99,,,-99.99,,2013-07-30 04:53:00,
2013-07-30 01:13:00,71.0,-99.9,30.13,North,-999,-999.0,-999.0,-999,-99.99,,,-99.99,,2013-07-30 05:13:00,
2013-07-30 01:45:00,-999.0,-99.9,30.13,West,268,5.0,5.0,-999,-99.99,,,-99.99,,2013-07-30 05:45:00,
2013-07-30 01:53:00,-999.0,-99.9,30.13,West,268,5.0,5.0,-999,-99.99,,,-99.99,,2013-07-30 05:53:00,
2013-07-30 02:03:00,-999.0,-99.9,30.13,WSW,248,4.0,5.0,-999,-99.99,,,-99.99,,2013-07-30 06:03:00,
2013-07-30 02:13:00,69.0,-99.9,30.13,WSW,248,4.0,5.0,-999,-99.99,,,-99.99,,2013-07-30 06:13:00,
2013-07-30 02:23:00,-999.0,-99.9,30.12,WSW,252,4.0,5.0,-999,-99.99,,,-99.99,,2013-07-30 06:23:00,
2013-07-30 02:43:00,69.0,-99.9,30.12,North,-999,-999.0,-999.0,-999,-99.99,,,-99.99,,2013-07-30 06:43:00,
2013-07-30 02:53:00,-999.0,-99.9,30.12,West,266,5.0,5.0,-999,-99.99,,,-99.99,,2013-07-30 06:53:00,
2013-07-30 03:03:00,-999.0,-99.9,30.12,West,265,5.0,5.0,-999,-99.99,,,-99.99,,2013-07-30 07:03:00,
2013-07-30 03:13:00,-999.0,-99.9,30.12,West,270,5.0,6.0,-999,-99.99,,,-99.99,,2013-07-30 07:13:00,
2013-07-30 03:33:00,-999.0,-99.9,30.12,West,272,5.0,6.0,-999,-99.99,,,-99.99,,2013-07-30 07:33:00,
2013-07-30 03:43:00,-999.0,-99.9,30.13,West,279,6.0,7.0,-999,-99.99,,,-99.99,,2013-07-30 07:43:00,
2013-07-30 03:53:00,-999.0,-99.9,30.13,West,279,6.0,7.0,-999,-99.99,,,-99.99,,2013-07-30 07:53:00,
2013-07-30 04:03:00,-999.0,-99.9,30.13,WNW,284,6.0,9.0,-999,-99.99,,,-99.99,,2013-07-30 08:03:00,
2013-07-30 04:13:00,-999.0,-99.9,30.13,WNW,287,8.0,9.0,-999,-99.99,,,-99.99,,2013-07-30 08:13:00,
2013-07-30 04:23:00,-999.0,-99.9,30.13,West,275,6.0,7.0,-999,-99.99,,,-99.99,,2013-07-30 08:23:00,
2013-07-30 04:33:00,-999.0,-99.9,30.14,West,274,6.0,7.0,-999,-99.99,,,-99.99,,2013-07-30 08:33:00,
2013-07-30 04:43:00,67.0,-99.9,30.13,North,-999,-999.0,-999.0,-999,-99.99,,,-99.99,,2013-07-30 08:43:00,
2013-07-30 04:53:00,-999.0,-99.9,30.14,West,260,5.0,6.0,-999,-99.99,,,-99.99,,2013-07-30 08:53:00,
2013-07-30 05:03:00,-999.0,-99.9,30.14,West,263,6.0,7.0,-999,-99.99,,,-99.99,,2013-07-30 09:03:00,
2013-07-30 05:13:00,-999.0,-99.9,30.14,West,269,6.0,6.0,-999,-99.99,,,-99.99,,2013-07-30 09:13:00,
2013-07-30 05:23:00,-999.0,-99.9,30.14,West,269,6.0,6.0,-999,-99.99,,,-99.99,,2013-07-30 09:23:00,
2013-07-30 05:33:00,-999.0,-99.9,30.15,West,271,5.0,6.0,-999,-99.99,,,-99.99,,2013-07-30 09:33:00,
2013-07-30 05:53:00,-999.0,-99.9,30.15,West,267,5.0,6.0,-999,-99.99,,,-99.99,,2013-07-30 09:53:00,
2013-07-30 06:12:00,-999.0,-99.9,30.15,West,269,5.0,7.0,-999,-99.99,,,-99.99,,2013-07-30 10:12:00,
2013-07-30 06:33:00,-999.0,-99.9,30.16,West,265,5.0,7.0,-999,-99.99,,,-99.99,,2013-07-30 10:33:00,
2013-07-30 06:44:00,-999.0,-99.9,30.16,West,268,6.0,7.0,-999,-99.99,,,-99.99,,2013-07-30 10:44:00,
2013-07-30 06:52:00,-999.0,-99.9,30.16,West,273,6.0,7.0,-999,-99.99,,,-99.99,,2013-07-30 10:52:00,
2013-07-30 07:12:00,-999.0,-99.9,30.17,WNW,291,7.0,9.0,-999,-99.99,,,-99.99,,2013-07-30 11:12:00,
2013-07-30 07:22:00,-999.0,-99.9,30.17,WNW,302,8.0,9.0,-999,-99.99,,,-99.99,,2013-07-30 11:22:00,
2013-07-30 08:33:00,-999.0,-99.9,30.18,WNW,293,8.0,9.0,-999,-99.99,,,-99.99,,2013-07-30 12:33:00,
2013-07-30 08:42:00,-999.0,-99.9,30.18,NW,310,10.0,12.0,-999,-99.99,,,-99.99,,2013-07-30 12:42:00,
2013-07-30 09:43:00,-999.0,-99.9,30.19,NW,326,9.0,11.0,-999,-99.99,,,-99.99,,2013-07-30 13:43:00,
2013-07-30 09:53:00,-999.0,-99.9,30.19,NNW,332,9.0,10.0,-999,-99.99,,,-99.99,,2013-07-30 13:53:00,
2013-07-30 10:03:00,-999.0,-99.9,30.19,NNW,330,8.0,10.0,-999,-99.99,,,-99.99,,2013-07-30 14:03:00,
2013-07-30 10:12:00,-999.0,-99.9,30.19,NNW,330,8.0,10.0,-999,-99.99,,,-99.99,,2013-07-30 14:12:00,
2013-07-30 10:22:00,-999.0,-99.9,30.19,NNW,336,5.0,7.0,-999,-99.99,,,-99.99,,2013-07-30 14:22:00,
2013-07-30 10:33:00,-999.0,-99.9,30.19,NNW,339,6.0,7.0,-999,-99.99,,,-99.99,,2013-07-30 14:33:00,
2013-07-30 10:43:00,-999.0,-99.9,30.19,NW,319,6.0,7.0,-999,-99.99,,,-99.99,,2013-07-30 14:43:00,
2013-07-30 10:53:00,-999.0,-99.9,30.19,NW,321,6.0,6.0,-999,-99.99,,,-99.99,,2013-07-30 14:53:00,
2013-07-30 11:03:00,-999.0,-99.9,30.19,NW,321,6.0,6.0,-999,-99.99,,,-99.99,,2013-07-30 15:03:00,
2013-07-30 11:12:00,-999.0,-99.9,30.19,NNW,346,2.0,3.0,-999,-99.99,,,-99.99,,2013-07-30 15:12:00,
2013-07-30 11:23:00,-999.0,-99.9,30.19,North,9,4.0,6.0,-999,-99.99,,,-99.99,,2013-07-30 15:23:00,
2013-07-30 11:44:00,-999.0,-99.9,30.19,North,9,5.0,6.0,-999,-99.99,,,-99.99,,2013-07-30 15:44:00,
2013-07-30 11:53:00,-999.0,-99.9,30.19,NNE,16,6.0,7.0,-999,-99.99,,,-99.99,,2013-07-30 15:53:00,
2013-07-30 12:02:00,-999.0,-99.9,30.19,NNE,16,6.0,7.0,-999,-99.99,,,-99.99,,2013-07-30 16:02:00,
2013-07-30 12:12:00,73.0,-99.9,30.18,North,-999,-999.0,-999.0,-999,-99.99,,,-99.99,,2013-07-30 16:12:00,
2013-07-30 12:44:00,-999.0,-99.9,30.17,North,7,7.0,8.0,-999,-99.99,,,-99.99,,2013-07-30 16:44:00,
2013-07-30 13:02:00,74.0,-99.9,30.17,North,-999,-999.0,-999.0,-999,-99.99,,,-99.99,,2013-07-30 17:02:00,
2013-07-30 13:13:00,-999.0,-99.9,30.17,NNE,13,8.0,10.0,-999,-99.99,,,-99.99,,2013-07-30 17:13:00,
2013-07-30 14:03:00,76.0,-99.9,-100.00,North,-999,-999.0,-999.0,-999,-99.99,,,-99.99,,2013-07-30 18:03:00,
2013-07-30 14:13:00,75.0,-99.9,-100.00,North,-999,-999.0,-999.0,-999,-99.99,,,-99.99,,2013-07-30 18:13:00,
2013-07-30 14:52:00,75.0,-99.9,-100.00,North,-999,-999.0,-999.0,-999,-99.99,,,-99.99,,2013-07-30 18:52:00,
2013-07-30 15:44:00,75.0,-99.9,-100.00,North,-999,-999.0,-999.0,-999,-99.99,,,-99.99,,2013-07-30 19:44:00,
2013-07-30 16:02:00,75.0,-99.9,-100.00,North,-999,-999.0,-999.0,-999,-99.99,,,-99.99,,2013-07-30 20:02:00,
2013-07-30 16:43:00,76.0,-99.9,-100.00,North,-999,-999.0,-999.0,-999,-99.99,,,-99.99,,2013-07-30 20:43:00,
2013-07-30 17:03:00,77.0,-99.9,-100.00,North,-999,-999.0,-999.0,-999,-99.99,,,-99.99,,2013-07-30 21:03:00,
2013-07-30 18:32:00,78.0,-99.9,-100.00,North,-999,-999.0,-999.0,-999,-99.99,,,-99.99,,2013-07-30 22:32:00,
2013-07-30 18:53:00,78.0,-99.9,-100.00,North,-999,-999.0,-999.0,-999,-99.99,,,-99.99,,2013-07-30 22:53:00,
2013-07-30 19:02:00,78.0,-99.9,-100.00,North,-999,-999.0,-999.0,-999,-99.99,,,-99.99,,2013-07-30 23:02:00,
2013-07-30 19:13:00,78.0,-99.9,-100.00,North,-999,-999.0,-999.0,-999,-99.99,,,-99.99,,2013-07-30 23:13:00,
2013-07-30 19:32:00,78.0,-99.9,-100.00,North,-999,-999.0,-999.0,-999,-99.99,,,-99.99,,2013-07-30 23:32:00,
2013-07-30 19:43:00,78.0,-99.9,-100.00,North,-999,-999.0,-999.0,-999,-99.99,,,-99.99,,2013-07-30 23:43:00,
2013-07-30 19:53:00,78.0,-99.9,-100.00,North,-999,-999.0,-999.0,-999,-99.99,,,-99.99,,2013-07-30 23:53:00,
2013-07-30 20:02:00,77.0,-99.9,-100.00,North,-999,-999.0,-999.0,-999,-99.99,,,-99.99,,2013-07-31 00:02:00,
2013-07-30 20:12:00,77.0,-99.9,-100.00,North,-999,-999.0,-999.0,-999,-99.99,,,-99.99,,2013-07-31 00:12:00,
2013-07-30 20:32:00,77.0,-99.9,-100.00,North,-999,-999.0,-999.0,-999,-99.99,,,-99.99,,2013-07-31 00:32:00,
2013-07-30 20:43:00,77.0,-99.9,-100.00,North,-999,-999.0,-999.0,-999,-99.99,,,-99.99,,2013-07-31 00:43:00,
2013-07-30 20:53:00,76.0,-99.9,-100.00,North,-999,-999.0,-999.0,-999,-99.99,,,-99.99,,2013-07-31 00:53:00,
2013-07-30 21:03:00,76.0,-99.9,-100.00,North,-999,-999.0,-999.0,-999,-99.99,,,-99.99,,2013-07-31 01:03:00,
2013-07-30 21:22:00,75.0,-99.9,-100.00,North,-999,-999.0,-999.0,-999,-99.99,,,-99.99,,2013-07-31 01:22:00,
2013-07-30 21:32:00,75.0,-99.9,-100.00,North,-999,-999.0,-999.0,-999,-99.99,,,-99.99,,2013-07-31 01:32:00,
2013-07-30 21:43:00,75.0,-99.9,-100.00,North,-999,-999.0,-999.0,-999,-99.99,,,-99.99,,2013-07-31 01:43:00,
2013-07-30 22:03:00,75.0,-99.9,-100.00,North,-999,-999.0,-999.0,-999,-99.99,,,-99.99,,2013-07-31 02:03:00,
2013-07-30 23:02:00,73.0,-99.9,-100.00,North,-999,-999.0,-999.0,-999,-99.99,,,-99.99,,2013-07-31 03:02:00,
2013-07-30 23:22:00,74.0,-99.9,-100.00,North,-999,-999.0,-999.0,-999,-99.99,,,-99.99,,2013-07-31 03:22:00,